Regional Weather Roundup
Issued by NWS

Home | Current Version | Previous Version | Text Only | Print | Product List | Glossary On
Versions: 1 2 3 4 5 6 7 8 9 10 11 12 13 14 15 16 17 18 19 20 21 22 23 24 25 26 27 28 29 30 31 32 33 34 35 36 37 38 39 40 41 42 43 44 45 46 47 48 49 50
000
ASUS43 KMKX 270521
RWRWI

WISCONSIN REGIONAL WEATHER ROUNDUP
NATIONAL WEATHER SERVICE MILWAUKEE/SULLIVAN WI
1200 AM CDT MON MAR 27 2017

NOTE: "FAIR" INDICATES FEW OR NO CLOUDS BELOW 12,000 FEET WITH NO
SIGNIFICANT WEATHER AND/OR OBSTRUCTIONS TO VISIBILITY.

WIZ001-002-006>008-014>016-023>028-270600-
NORTHWEST WISCONSIN

CITY           SKY/WX    TMP DP  RH WIND       PRES   REMARKS
SUPERIOR ARPT  CLOUDY    33  32  99 CALM      29.96S
ASHLAND        CLOUDY    33  31  92 W3        29.95S
HAYWARD        CLOUDY    35  32  88 CALM      29.92F
SIREN          DRIZZLE   35  34  96 CALM      29.94S
CUMBERLAND     CLOUDY    34  32  93 CALM      29.93S
RICE LAKE      CLOUDY    36  35  96 CALM      29.94R
CHETEK         CLOUDY    36  36  99 CALM      29.93R
LADYSMITH      CLOUDY    36  34  93 N6        29.93S WCI  31
EAU CLAIRE     CLOUDY    40  39  97 N3        29.92S FOG
MENOMONIE      CLOUDY    40  39  96 NW5       29.93S FOG
NEW RICHMOND   CLOUDY    36  36 100 N3        29.94S
OSCEOLA        CLOUDY    37  37 100 N3        29.97S
$$

WIZ003>005-009-010-017-018-270600-
NORTH CENTRAL WISCONSIN

CITY           SKY/WX    TMP DP  RH WIND       PRES   REMARKS
MANITOWISH WTR CLOUDY    32  32 100 NW3       29.89R
ARBOR VITAE    CLOUDY    34  33  96 NW3       29.88R FOG
WOODRUFF       CLOUDY    34  33  96 NW3       29.88R FOG
RHINELANDER    CLOUDY    37  36  96 NW3       29.87R
EAGLE RIVER    CLOUDY    33  33 100 N6        29.86S WCI  27
LAND O LAKES   CLOUDY    32  32 100 N6        29.88S WCI  27
PHILLIPS       CLOUDY    32  32 100 CALM      29.90R FOG
TOMAHAWK       CLOUDY    35  34  96 NW5       29.90R WCI  31
MEDFORD        CLOUDY    37  36  96 N3        29.88F
MERRILL        CLOUDY    37  37 100 NW3       29.89R
$$

WIZ029-030-035-036-043>047-270600-
CENTRAL WISCONSIN

CITY           SKY/WX    TMP DP  RH WIND       PRES   REMARKS
WAUSAU         CLOUDY    38  38 100 NW3       29.88R
MOSINEE        CLOUDY    37  37 100 W5        29.90R WCI  34
MARSHFIELD     FOG       38  37  97 W3        29.88S VSB 1/4
STEVENS POINT  CLOUDY    37  37 100 CALM      29.90R FOG
WAUPACA        CLOUDY    40  38  96 CALM      29.90R FOG
WAUTOMA        CLOUDY    39  37  93 NW3       29.90F
WISC RAPIDS    LGT RAIN  39  39 100 NW5       29.91S FOG
CAMP DOUGLAS   CLOUDY    39  39 100 CALM      29.90F
$$

WIZ011>013-019>022-031-037>040-048>050-270600-
NORTHEAST WISCONSIN

CITY           SKY/WX    TMP DP  RH WIND       PRES   REMARKS
ANTIGO         CLOUDY    35  35 100 CALM      29.87R
SHAWANO        DRIZZLE   38  37  94 W3        29.89R
OCONTO         CLOUDY    35  35  99 CALM      29.87S
STURGEON BAY   CLOUDY    34  34 100 N8        29.87F FOG     WCI  27
GREEN BAY      CLOUDY    37  37 100 CALM      29.89R
MANITOWOC      CLOUDY    37  35  92 NW7       29.88S WCI  32
APPLETON       DRIZZLE   36  36 100 W3        29.88R
CLINTONVILLE   CLOUDY    36  36 100 W5        29.89R WCI  32
OSHKOSH        CLOUDY    39  37  92 NW5       29.89R
$$

WIZ032>034-041-042-053>061-270600-
SOUTHWEST WISCONSIN

CITY           SKY/WX    TMP DP  RH WIND       PRES   REMARKS
LA CROSSE      CLOUDY    42  40  92 CALM      29.92F
SPARTA         CLOUDY    39  39 100 CALM      29.92F FOG
VIROQUA        CLOUDY    39  39 100 NW5       29.90S VSB 1/4
BOSCOBEL       CLOUDY    43  41  93 CALM      29.92S
PRAIRIE DU CHI CLOUDY    42  39  90 NW5       29.92S
PLATTEVILLE    CLOUDY    43  43 100 NW5       29.90F VSB 1/2
$$

WIZ056-057-062-063-064-067-068-270600-
SOUTH CENTRAL WISCONSIN

CITY           SKY/WX    TMP DP  RH WIND       PRES   REMARKS
REEDSBURG      CLOUDY    39  39 100 NW3       29.90F FOG
BARABOO/DELLS  CLOUDY    38  38  97 CALM      29.90F FOG
LONE ROCK      CLOUDY    43  40  89 CALM      29.91F
MINERAL POINT  FOG       43  43 100 CALM      29.89F VSB 1/4
MADISON        CLOUDY    41  39  93 CALM      29.90S
MIDDLETON      CLOUDY    42  42 100 NW5       29.90F
WATERTOWN      CLOUDY    40  40 100 NW5       29.89S FOG
MONROE         CLOUDY    43  43 100 NW5       29.89S
JANESVILLE     CLOUDY    43  43 100 CALM      29.89F FOG
$$

WIZ051-052-058>065-066-070>072-270600-
SOUTHEAST WISCONSIN

CITY           SKY/WX    TMP DP  RH WIND       PRES   REMARKS
MILWAUKEE      FOG       43  40  89 CALM      29.88S VSB 3/4
WAUKESHA       CLOUDY    39  39 100 NW6       29.89F FOG     WCI  35
MILWAUKEE/TIMM CLOUDY    43  41  93 W7        29.88S FOG
RACINE         CLOUDY    42  40  92 N3        29.89S FOG
KENOSHA        FOG       46  45  96 CALM      29.88S VSB 1/4
FOND DU LAC    LGT RAIN  39  36  89 NW6       29.89S WCI  35
SHEBOYGAN      LGT RAIN  39  37  92 W6        29.88R WCI  35
WEST BEND      DRIZZLE   39  39 100 NW3       29.88S
JUNEAU         CLOUDY    39  38  99 CALM      29.90S
$$

LSZ147-162-270600-
LAKE SUPERIOR

STATION/POSITION TIME  TEMP    WIND        PRES    WAVE
                       AIR SEA DIR/SP/G            HT/PER
                 (UTC) (F)     (DEG/KT/KT) (MB)    (FT/S)
DEVILS ISLAND    0500   34     330/  5/  5 1014.9R
PORT WING        0440   34     360/  3/  3 1014.6S
SAXON HARBOR     0440   33     300/  4/  5 1013.5S
$$

LMZ867-665-643>646-270600-
LAKE MICHIGAN

STATION/POSITION TIME  TEMP    WIND        PRES    WAVE
                       AIR SEA DIR/SP/G            HT/PER
                 (UTC) (F)     (DEG/KT/KT) (MB)    (FT/S)
CHAMBERS ISLAND  0440   33     330/  4/  4 1011.2S
NORTHPORT PIER   0440   33     320/  2/  7 1011.2F
SISTER BAY       0406   35      20/  4/  6   N/A
KEWAUNEE LAKESHO 0454   36     350/  3/  5 1011.1S
SHEBOYGAN LAKESH 0500   40     280/  6/  8 1012.3R
PORT WASHINGTON  0440   41      CALM  /  1 1012.9R
MILWAUKEE LAKESH 0500   39      40/  3/  4   N/A
KENOSHA   LAKESH 0500   40        CALM     1011.9
$$

TC  - TEMPERATURE IN CELSIUS
VSB - VISIBILITY IN STATUTE MILES
WCI - WIND CHILL INDEX
HX  - HEAT INDEX




USA.gov is the U.S. government's official web portal to all federal, state and local government web resources and services.